[[{"header":{"parameterUnit":"m.s-1","parameterCategory":1,"la1":30.2991,"la2":30.254,"lo1":-89.0895,"lo2":-89.0444,"dy":0.0017,"dx":0.0017,"nx":28,"ny":28,"refTime":"2023-08-21T21:00:00:Z","depth":0,"parameterNumber":2,"parameterNumberName":"U-component_of_WINDS"},"data":[0,0,0,0,0,0,0,0,0,0,0,0,0,0,0,0,0,0,0,0,0,0,0,0,0,0,0,0,0,0,0,0,0,0,0,0,0,0,0,0,0,0,0,0,0,0,0,0,0,0,0,0,0,0,0,0,0,0,-0.5315,-0.5314,0,-0.5241,-0.524,-0.5239,-0.5232,-0.5233,-0.5234,-0.5234,-0.5157,-0.5154,-0.5151,0,0,0,0,0,0,0,0,0,0,0,0,0,-0.5453,-0.545,-0.5315,-0.5314,-0.5313,-0.5241,-0.524,-0.5239,-0.5232,-0.5233,-0.5234,-0.5235,-0.5157,-0.5154,-0.5151,0,0,0,0,0,0,0,0,0,0,0,0,0,-0.5387,-0.545,-0.5316,-0.5301,-0.5299,-0.5241,-0.524,-0.5239,-0.5232,-0.5233,-0.5234,-0.5235,-0.5159,-0.5154,-0.515,-0.5101,0,0,-0.5137,-0.5136,0,0,0,0,0,0,0,0,-0.5391,-0.5382,-0.5304,-0.5302,-0.53,-0.5247,-0.526,-0.5192,-0.5232,-0.5257,-0.5235,-0.5236,-0.5186,-0.5179,-0.5163,-0.5097,-0.5094,-0.5137,-0.5135,-0.5133,-0.5132,0,0,0,0,0,0,0,-0.5395,-0.5385,-0.5286,-0.5303,-0.53,-0.5299,-0.5291,-0.5247,-0.5216,-0.5255,-0.5255,-0.5246,-0.5185,-0.5167,-0.5161,-0.5093,-0.5137,-0.5133,-0.5131,-0.5129,-0.4986,-0.4984,0,0,0,0,0,0,-0.5403,-0.5389,-0.5288,-0.5284,-0.5349,-0.5296,-0.5287,-0.5263,-0.5216,-0.521,-0.5245,-0.5246,-0.5173,-0.5166,-0.5158,-0.5098,-0.5133,-0.5129,-0.5126,-0.4987,-0.4985,-0.4984,0,0,0,0,0,0,-0.5406,-0.5394,-0.5291,-0.5336,-0.5323,-0.5292,-0.5265,-0.5261,-0.5243,-0.5208,-0.5203,-0.5232,-0.5174,-0.5164,-0.5116,-0.5095,-0.5127,-0.5123,-0.4988,-0.4986,-0.4985,-0.4977,0,0,0,0,0,0,-0.541,-0.5395,-0.5375,-0.5336,-0.5321,-0.525,-0.5264,-0.5258,-0.5236,-0.5236,-0.5195,-0.5189,-0.5174,-0.5122,-0.5112,-0.509,-0.512,-0.499,-0.4987,-0.4985,-0.4979,-0.4975,-0.4972,0,0,0,0,0,-0.5415,-0.5375,-0.5374,-0.5362,-0.5295,-0.5248,-0.524,-0.5223,-0.5234,-0.5214,-0.5193,-0.5191,-0.51,-0.5117,-0.5105,-0.5082,-0.4991,-0.4988,-0.4985,-0.4981,-0.4976,-0.4972,0,0,0,0,0,0,-0.5411,-0.5369,-0.5368,-0.5314,-0.5285,-0.5247,-0.5222,-0.5219,-0.5185,-0.5187,-0.5168,-0.5159,-0.5112,-0.5092,-0.5112,-0.5033,-0.5047,-0.5041,-0.5047,-0.5042,-0.5039,-0.5044,-0.5116,0,0,0,0,0,-0.5405,-0.537,-0.5335,-0.5292,-0.5277,-0.5252,-0.5231,-0.5222,-0.519,-0.5178,-0.5152,-0.5122,-0.5087,-0.5064,-0.5029,-0.4977,-0.4969,-0.4956,-0.4952,-0.495,-0.4945,-0.4918,-0.4912,-0.4974,-0.4974,-0.4974,0,0,-0.539,-0.5363,-0.5342,-0.529,-0.5267,-0.5232,-0.5242,-0.5204,-0.5178,-0.5172,-0.5125,-0.5106,-0.5071,-0.5021,-0.4998,-0.5004,-0.4926,-0.4946,-0.4944,-0.494,-0.4914,-0.4908,-0.4903,-0.4972,-0.4973,-0.4973,0,0,-0.5345,-0.5321,-0.5283,-0.5259,-0.5224,-0.5208,-0.5199,-0.5163,-0.515,-0.5104,-0.5099,-0.5068,-0.5007,-0.4984,-0.4963,-0.4914,-0.4911,-0.4904,-0.4884,-0.4858,-0.4853,-0.4849,-0.4832,-0.4826,-0.4899,-0.4899,-0.4899,0,-0.5331,-0.5278,-0.5263,-0.5226,-0.5205,-0.5199,-0.5161,-0.5139,-0.5094,-0.508,-0.5087,-0.5013,-0.4989,-0.4934,-0.4923,-0.4906,-0.4896,-0.4907,-0.4855,-0.4851,-0.4846,-0.483,-0.4824,-0.4898,-0.4898,-0.4899,-0.4899,0,-0.5263,-0.5227,-0.52,-0.5159,-0.5134,-0.5097,-0.5077,-0.5054,-0.5048,-0.5032,-0.4986,-0.4958,-0.4918,-0.4905,-0.4897,-0.485,-0.4855,-0.4859,-0.4872,-0.484,-0.4825,-0.4818,-0.4897,-0.4898,-0.4898,-0.4898,0,0,-0.5211,-0.5164,-0.5155,-0.5137,-0.5099,-0.5071,-0.5035,-0.4997,-0.4979,-0.4949,-0.4918,-0.4869,-0.4874,-0.4851,-0.4842,-0.4819,-0.4783,-0.4826,-0.4825,-0.4819,-0.4731,-0.4728,-0.4721,-0.4782,-0.4781,-0.478,-0.4734,0,-0.5162,-0.5097,-0.5084,-0.5028,-0.4995,-0.4992,-0.496,-0.4934,-0.4919,-0.489,-0.4873,-0.4839,-0.4847,-0.4834,-0.4811,-0.4792,-0.4765,-0.4796,-0.4754,-0.4752,-0.4762,-0.4713,-0.4709,-0.4667,-0.4728,-0.4727,-0.4726,0,-0.5095,-0.5066,-0.5006,-0.4976,-0.4962,-0.4933,-0.49,-0.4872,-0.4843,-0.4834,-0.4811,-0.4805,-0.4768,-0.4784,-0.4734,-0.4755,-0.4738,-0.4726,-0.4724,-0.4719,-0.4737,-0.4706,-0.4653,-0.4647,-0.4717,-0.4717,-0.4718,0,-0.5064,-0.5009,-0.4967,-0.4952,-0.4915,-0.4896,-0.4879,-0.4852,-0.4832,-0.4803,-0.479,-0.4757,-0.4738,-0.4713,-0.4699,-0.4712,-0.465,-0.4665,-0.4642,-0.4643,-0.4628,-0.4629,-0.4571,-0.4618,-0.4618,-0.4618,-0.4618,0,-0.5011,-0.4975,-0.4953,-0.4927,-0.4888,-0.4875,-0.4836,-0.482,-0.4796,-0.4768,-0.4763,-0.4737,-0.472,-0.4691,-0.468,-0.4641,-0.4633,-0.4625,-0.4622,-0.4625,-0.4626,-0.4612,-0.4615,-0.4616,-0.4617,-0.4617,-0.4617,0,-0.4968,-0.4952,-0.4907,-0.4876,-0.4868,-0.484,-0.4815,-0.479,-0.4777,-0.4741,-0.4732,-0.4711,-0.4677,-0.4661,-0.4619,-0.4612,-0.4568,-0.4567,-0.4577,-0.4576,-0.4555,-0.4557,-0.4485,-0.4476,-0.4529,-0.4529,-0.4528,0,-0.4935,-0.4907,-0.4875,-0.4856,-0.484,-0.4809,-0.4789,-0.4776,-0.4755,-0.4723,-0.4702,-0.4669,-0.4642,-0.4589,-0.457,-0.4538,-0.4537,-0.4514,-0.4532,-0.4536,-0.4537,-0.4539,-0.4536,-0.451,-0.451,-0.4509,-0.4509,0,-0.4877,-0.4872,-0.4843,-0.4812,-0.4788,-0.4763,-0.4738,-0.4723,-0.4707,-0.4684,-0.465,-0.4629,-0.4588,-0.4556,-0.4524,-0.4508,-0.4506,-0.4504,-0.4497,-0.4499,-0.4507,-0.4503,-0.4569,-0.4505,-0.4506,-0.4506,-0.4506,-0.4506,-0.4838,-0.4815,-0.4789,-0.4758,-0.4739,-0.4716,-0.4692,-0.4677,-0.4649,-0.4615,-0.4609,-0.4574,-0.4549,-0.4506,-0.4489,-0.4462,-0.4467,-0.4457,-0.4455,-0.4452,-0.4451,-0.4512,-0.4456,-0.4456,-0.4456,-0.4457,-0.4457,0,-0.4781,-0.4766,-0.4737,-0.4704,-0.468,-0.4682,-0.4655,-0.4635,-0.4604,-0.4581,-0.4555,-0.4518,-0.4488,-0.4467,-0.4437,-0.4419,-0.4418,-0.4411,-0.4412,-0.4409,-0.4448,-0.4457,-0.4413,-0.4413,-0.4413,-0.4413,-0.4413,-0.4413,-0.4749,-0.4709,-0.4701,-0.4653,-0.4638,-0.4603,-0.4589,-0.4569,-0.4551,-0.4509,-0.4484,-0.4472,-0.4451,-0.4419,-0.4391,-0.4386,-0.4375,-0.4369,-0.4364,-0.4401,-0.4406,-0.441,-0.4419,-0.4367,-0.4367,-0.4327,-0.4327,-0.4326]},{"header":{"parameterUnit":"m.s-1","parameterCategory":1,"la1":30.2991,"la2":30.254,"lo1":-89.0895,"lo2":-89.0444,"dy":0.0017,"dx":0.0017,"nx":28,"ny":28,"refTime":"2023-08-21T21:00:00:Z","depth":0,"parameterNumber":3,"parameterNumberName":"V-component_of_WINDS"},"data":[0,0,0,0,0,0,0,0,0,0,0,0,0,0,0,0,0,0,0,0,0,0,0,0,0,0,0,0,0,0,0,0,0,0,0,0,0,0,0,0,0,0,0,0,0,0,0,0,0,0,0,0,0,0,0,0,0,0,3.6161,3.616,0,3.6072,3.6071,3.607,3.6088,3.609,3.6091,3.6093,3.5991,3.5987,3.5983,0,0,0,0,0,0,0,0,0,0,0,0,0,3.6341,3.6338,3.6162,3.616,3.6159,3.6072,3.6071,3.6069,3.6088,3.609,3.6092,3.6094,3.5993,3.5988,3.5983,0,0,0,0,0,0,0,0,0,0,0,0,0,3.6258,3.6337,3.6162,3.6158,3.6157,3.6072,3.6071,3.6069,3.6087,3.609,3.6092,3.6095,3.5994,3.5988,3.5982,3.5892,0,0,3.5962,3.596,0,0,0,0,0,0,0,0,3.6263,3.6252,3.616,3.6158,3.6157,3.6094,3.6097,3.6009,3.6087,3.6113,3.6093,3.6096,3.6023,3.6014,3.5992,3.5887,3.5883,3.5962,3.5958,3.5955,3.5953,0,0,0,0,0,0,0,3.6269,3.6255,3.6126,3.6158,3.6157,3.6159,3.615,3.608,3.6055,3.6111,3.6113,3.6102,3.6022,3.5998,3.5989,3.5881,3.5962,3.5956,3.5952,3.595,3.5699,3.5697,0,0,0,0,0,0,3.6277,3.626,3.6129,3.6123,3.6218,3.6153,3.6143,3.6111,3.6056,3.605,3.61,3.6103,3.6007,3.5997,3.5986,3.5877,3.5955,3.5949,3.5945,3.5702,3.5699,3.5696,0,0,0,0,0,0,3.6281,3.6265,3.6132,3.6192,3.6175,3.6148,3.6112,3.6108,3.6084,3.6047,3.6042,3.608,3.6009,3.5995,3.5916,3.5874,3.5946,3.594,3.5705,3.5701,3.5697,3.5658,0,0,0,0,0,0,3.6286,3.6266,3.6233,3.6191,3.6172,3.6066,3.6109,3.6105,3.6074,3.6077,3.6027,3.6021,3.601,3.5925,3.591,3.5866,3.5935,3.5709,3.5703,3.5698,3.5663,3.5653,3.5645,0,0,0,0,0,3.6292,3.6223,3.6232,3.6216,3.6131,3.6063,3.6052,3.6043,3.607,3.6036,3.6013,3.6023,3.5882,3.5917,3.5899,3.5853,3.5711,3.5705,3.5699,3.5667,3.5655,3.5645,0,0,0,0,0,0,3.6257,3.6218,3.6226,3.6143,3.6107,3.6067,3.6023,3.6031,3.5984,3.5988,3.5977,3.5965,3.5885,3.5862,3.5902,3.5764,3.58,3.579,3.5782,3.577,3.5761,3.5767,3.593,0,0,0,0,0,3.624,3.6192,3.6159,3.6088,3.607,3.605,3.602,3.6017,3.5978,3.5962,3.5933,3.5892,3.5839,3.5803,3.5752,3.5661,3.5649,3.562,3.5611,3.5604,3.5594,3.5544,3.5531,3.5675,3.5675,3.5675,0,0,3.6203,3.6176,3.6145,3.6081,3.6052,3.6,3.6036,3.5979,3.5939,3.5952,3.5877,3.5854,3.5808,3.5723,3.5684,3.5701,3.5553,3.5596,3.559,3.5584,3.5536,3.5523,3.5511,3.5671,3.5671,3.5672,0,0,3.611,3.6085,3.6024,3.5996,3.5955,3.5942,3.5928,3.5887,3.5874,3.5799,3.5808,3.576,3.5668,3.5635,3.5606,3.5504,3.5511,3.5487,3.5438,3.539,3.5378,3.5368,3.5331,3.5317,3.5479,3.5478,3.5478,0,3.6068,3.5992,3.599,3.5933,3.5904,3.5918,3.5854,3.5826,3.5769,3.5747,3.5768,3.5655,3.5625,3.5532,3.5508,3.5484,3.5466,3.5492,3.5381,3.5371,3.5361,3.5325,3.5311,3.5476,3.5476,3.5476,3.5477,0,3.5943,3.5891,3.5846,3.5794,3.576,3.57,3.5687,3.5652,3.5653,3.5638,3.5561,3.5526,3.5469,3.5447,3.5445,3.5354,3.5366,3.5384,3.542,3.5345,3.5311,3.5297,3.5472,3.5473,3.5474,3.5474,0,0,3.582,3.5772,3.5756,3.5733,3.569,3.5648,3.5589,3.5536,3.5506,3.5467,3.5415,3.534,3.5357,3.5324,3.5319,3.5277,3.5198,3.53,3.5299,3.5281,3.5095,3.508,3.5064,3.5204,3.5201,3.5199,3.5098,0,3.5722,3.5621,3.5618,3.5524,3.5475,3.5489,3.5437,3.5404,3.5389,3.5343,3.5325,3.5272,3.5299,3.528,3.5239,3.5216,3.516,3.5224,3.5153,3.5151,3.5162,3.5047,3.5031,3.4937,3.5085,3.5083,3.5081,0,3.5592,3.5553,3.5456,3.5422,3.5401,3.5355,3.5307,3.5265,3.5227,3.5219,3.5185,3.5187,3.5125,3.5165,3.5078,3.5121,3.5093,3.5078,3.5074,3.5064,3.511,3.5033,3.4907,3.4892,3.506,3.5062,3.5063,0,3.5512,3.5434,3.5366,3.5347,3.5306,3.5273,3.5254,3.522,3.5189,3.5147,3.5126,3.5076,3.5048,3.5009,3.4997,3.5028,3.4909,3.4949,3.4899,3.4899,3.4871,3.4872,3.4736,3.4856,3.4856,3.4856,3.4856,0,3.54,3.5339,3.533,3.5288,3.522,3.5218,3.515,3.5132,3.5102,3.5055,3.5064,3.5019,3.5008,3.496,3.4951,3.4879,3.4867,3.4857,3.4854,3.4855,3.4856,3.4834,3.4839,3.4852,3.4853,3.4854,3.4855,0,3.5297,3.5289,3.5215,3.5185,3.5176,3.5127,3.5099,3.5057,3.5046,3.4986,3.4972,3.4951,3.4896,3.4882,3.4814,3.4808,3.4724,3.4728,3.4737,3.4737,3.4687,3.4691,3.453,3.4509,3.4644,3.4643,3.4642,0,3.5225,3.518,3.5146,3.5117,3.5098,3.505,3.502,3.5017,3.4985,3.4941,3.4904,3.4851,3.4808,3.4719,3.4696,3.4645,3.4648,3.4595,3.4639,3.4642,3.4645,3.4647,3.4642,3.4585,3.4584,3.4583,3.4582,0,3.5099,3.5098,3.5057,3.5014,3.4979,3.4944,3.4911,3.4886,3.4878,3.4841,3.4787,3.4754,3.4688,3.4635,3.4584,3.4562,3.4569,3.4569,3.4554,3.4553,3.4559,3.4554,3.4712,3.4571,3.4573,3.4573,3.4574,3.4574,3.5008,3.4969,3.4939,3.4893,3.4869,3.4838,3.4799,3.4784,3.474,3.4688,3.4688,3.4629,3.4594,3.4527,3.4503,3.4455,3.447,3.4449,3.4443,3.4438,3.4433,3.457,3.4445,3.4446,3.4446,3.4446,3.4446,0,3.4881,3.4864,3.4822,3.4777,3.4741,3.4757,3.4721,3.4689,3.4638,3.4606,3.4566,3.4503,3.4453,3.4428,3.4377,3.4343,3.4346,3.433,3.4331,3.4325,3.4423,3.444,3.4329,3.4329,3.4329,3.4329,3.4329,3.4329,3.481,3.4745,3.4741,3.4663,3.4646,3.4591,3.4569,3.4541,3.4516,3.4448,3.4407,3.4393,3.4364,3.4311,3.4265,3.4259,3.4239,3.4221,3.4216,3.4307,3.4319,3.433,3.4346,3.4217,3.4217,3.4123,3.4122,3.4121]}]]